Regional Weather Roundup
Issued by NWS Jackson, KY

Home | Current Version | Previous Version | Text Only | Print | Product List | Glossary On
Versions: 1 2 3 4 5 6 7 8 9 10 11 12 13 14 15 16 17 18 19 20 21 22 23 24 25 26 27
000
ASUS43 KJKL 201610
RWRJKL

EAST KENTUCKY HOURLY WEATHER ROUNDUP
NATIONAL WEATHER SERVICE JACKSON KY
1100 AM EST FRI JAN 20 2017

NOTE: "FAIR" INDICATES FEW OR NO CLOUDS BELOW 12,000 FEET WITH
NO SIGNIFICANT WEATHER AND/OR OBSTRUCTIONS TO VISIBILITY.

* THESE REPORTS ARE NOT UNDER NWS QUALITY CONTROL AND MAY NOT
  REPORT WEATHER SUCH AS PRECIPITATION AND FOG.

KYZ079-080-083-085-087-088-110-112-115-119-120-201700
...EASTERN KENTUCKY...

CITY           SKY/WX    TMP DP  RH WIND       PRES   REMARKS
JACKSON        CLOUDY    57  53  86 CALM      29.82R
LONDON         PTSUNNY   59  52  77 SW13      29.83S
SOMERSET*      PTSUNNY   55  55 100 W3        29.84S
MONTICELLO*    CLOUDY    59  55  87 W15       29.85R
WILLIAMSBURG*  CLOUDY    59  57  94 W5        29.83S
MIDDLESBORO*   CLOUDY    58  55  88 S9        29.85S
HARLAN APT*    CLOUDY    55  50  82 CALM      29.85S
PIKE CO APT*   CLOUDY    57  53  87 CALM      29.84S
BIG SANDY APT* CLOUDY    58  53  83 W3        29.84R
MOREHEAD APT*  CLOUDY    59  54  82 SW10G21   29.81S
ASHLAND*       CLOUDY    59  55  88 SW6       29.78R
$$

KYZ035-036-041-042-044-050-067-078-099-201700
...CENTRAL KENTUCKY...

CITY           SKY/WX    TMP DP  RH WIND       PRES   REMARKS
MT STERLING*   CLOUDY    57  54  88 W8        29.81S
FLEMING/MASON* CLOUDY    56  54  92 SW15G21   29.79S
DANVILLE*      PTSUNNY   59  54  82 SW12      29.80S
LEXINGTON      CLOUDY    58  53  84 SW13      29.78S
FRANKFORT      PTSUNNY   59  52  77 SW14G22   29.75S
LOUISVILLE     CLOUDY    59  52  77 SW10      29.75R
LEBANON*       CLOUDY    57  54  88 S13G18    29.79R
GLASGOW*       CLOUDY    57  56  97 SW9       29.80S
BOWLING GREEN  PTSUNNY   61  54  77 SW9       29.79S
$$

KYZ091>093-OHZ055-061-077-WVZ005-015-034-035-042-201700
...SOUTHERN OHIO/WEST VIRGINIA...

CITY           SKY/WX    TMP DP  RH WIND       PRES   REMARKS
COVINGTON      CLOUDY    56  53  90 SW13G20   29.73R
COLUMBUS       CLOUDY    55  51  86 SW10G21   29.71R
DAYTON         LGT RAIN  53  53 100 SW15G23   29.69R FOG
WILMINGTON     CLOUDY    55  53  93 SW16      29.72R
HUNTINGTON     CLOUDY    60  53  77 SW8       29.80R
CHARLESTON     PTSUNNY   60  51  72 SW12      29.81R
PINEVILLE*     MOSUNNY   61  52  72 MISG      29.89S
BECKLEY        PTSUNNY   54  49  83 SW6       29.85S
BLUEFIELD      PTSUNNY   53  49  86 SW7       29.87R
LOGAN CO APT*  CLOUDY    55  52  88 CALM      29.84R
$$

VAZ002-007-008-TNZ017-027-036-066-071-201700
...SOUTHWEST VIRGINIA/EAST TENNESSEE...

CITY           SKY/WX    TMP DP  RH WIND       PRES   REMARKS
WISE*          PTSUNNY   55  54  94 SW9       29.88S
JONESVILLE*    PTSUNNY   55  54  94 CALM      29.89R
ABINGDON*      DRIZZLE   55  55  99 CALM      29.89S
BRISTOL        CLOUDY    55  54  96 CALM      29.88R
MORRISTOWN*    CLOUDY    59  57  94 W10       29.85F
SEVIERVILLE*   MOSUNNY   61  57  88 W7        29.85S
KNOXVILLE      CLOUDY    61  58  90 SW10      29.85R
LAFOLLETTE*    CLOUDY    57  55  94 CALM      29.87F
OAK RIDGE      CLOUDY    57  55  93 VRB3      29.87R FOG
CROSSVILLE     CLOUDY    57  51  80 SW9G18    29.87R
NASHVILLE      PTSUNNY   61  53  75 SW7       29.82R
$$

...KEY TO REMARKS...
VSB - VISIBILITY IN MILES
WCI - WIND CHILL INDEX
HX  - HEAT INDEX

$$




USA.gov is the U.S. government's official web portal to all federal, state and local government web resources and services.